Startseite
Über Mich
AHP4
Galerie
Sehschlangen
Tourenbuch
Bookmarks
Elektronik
Bewertung
Geschichten
[Tagesmessung] [Jahreswerte] [Information]

Messwerte vom 31.05.2022

Die letzten Messwerte von 23:58:49 Uhr:
KategorieMesswert
Temperatur [°C]8
Luftdruck [mBar]998
Sonneneinstrahlung0
Wind [km/h]0 aus Ost
Niederschlag [l/m²]0
rel.Luftfeucht.96.6%
CO2 [ppm]696

Diagramme
Messwerte vom 31.05.2022
Tagesaggregation
KategorieMinimumMaximumSchnittSumme
Temperatur [°C]42812.7958
Luftdruck [mBar]9951001997.9417
Sonneneinstrahlung247131.0000
Wind [km/h]17
rF [%]27.596.674.22
Niederschlag [l/m²]4.8925
CO2 [ppm]415827603.5
Einordnung alsVegetationstag
Sommertag

Messungen an benachbarten Tagen: Zur Jahresaggregation 2022
Tabelle aller Messwerte
UhrzeitTemperatur [°C]Luftdruck [mBar]SonneWind [km/h]RichtungRegen [l/m²]rF [%]CO2 [ppm]
00:01:46 6 999 0 0 0 91.1 694
00:04:45 6 999 0 0 0 91.5 694
00:07:46 6 999 0 0 0 91.7 693
00:10:47 6 999 0 0 0 91.7 694
00:13:48 6 998 0 0 S 0 91.6 692
00:16:46 6 999 0 0 0 91.8 697
00:19:44 6 999 0 0 0 92 700
00:22:48 6 999 0 0 SO 0 92 709
00:25:46 6 999 0 0 S 0 92.1 702
00:28:47 6 999 0 0 0 92.4 700
00:31:46 6 999 0 0 S 0 92.6 701
00:34:46 6 999 0 0 0 92.8 695
00:37:46 6 999 0 0 0 93.3 700
00:40:47 6 999 0 0 0 93.7 707
00:43:47 6 1000 0 0 0 93.8 706
00:46:45 6 999 0 0 0 94 710
00:49:47 6 1000 0 0 O 0 94.4 712
00:52:47 6 999 0 0 O 0 94.6 718
00:55:47 6 1000 0 0 O 0 94.4 720
00:58:45 6 999 0 0 O 0 94.4 723
01:01:44 5 999 0 0 O 0 94.3 718
01:04:46 5 999 0 0 O 0 94.3 719
01:07:47 5 1000 0 0 O 0 94.5 722
01:10:46 5 999 0 0 O 0 94.6 729
01:13:46 5 999 0 0 O 0 94.9 727
01:16:46 5 999 0 0 O 0 95 727
01:19:45 5 999 0 0 O 0 95 730
01:22:45 5 999 0 0 O 0 95.1 731
01:25:46 5 999 0 0 O 0 95.2 732
01:28:46 5 999 0 0 O 0 95.4 734
01:31:47 5 1000 0 0 O 0 95.5 726
01:34:46 5 999 0 0 O 0 95.7 732
01:37:44 5 999 0 0 O 0 95.7 736
01:40:47 5 999 0 0 O 0 95.6 745
01:43:44 5 999 0 0 O 0 95.8 744
01:46:44 5 1000 0 0 O 0 95.8 743
01:49:45 5 999 0 0 O 0 95.8 750
01:52:48 5 999 0 0 O 0 95.8 756
01:55:45 5 999 0 0 O 0 95.9 770
01:58:47 5 999 0 0 O 0 95.9 777
02:01:48 5 1000 0 0 O 0 96.1 777
02:04:44 5 999 0 0 O 0 96.1 769
02:07:49 5 999 0 0 O 0 96.2 771
02:10:47 5 1000 0 0 O 0 96.4 764
02:13:46 5 999 0 0 O 0 96.4 776
02:16:45 5 999 0 0 O 0 96.4 779
02:19:48 5 999 0 0 O 0 96.4 782
02:22:45 5 1000 0 0 O 0 96.4 783
02:25:47 5 999 0 0 O 0 96.4 782
02:28:45 5 999 0 0 O 0 96.6 786
02:31:46 5 999 0 0 O 0 96.6 778
02:34:46 5 999 0 0 O 0 96.6 783
02:37:46 5 998 0 0 O 0 96.6 787
02:40:47 5 999 0 0 O 0 96.6 791
02:43:47 5 999 0 0 O 0 96.6 798
02:46:45 5 999 0 0 O 0 96.6 796
02:49:46 5 999 0 1 O 0 96.6 801
02:52:47 5 999 0 0 O 0 96.6 800
02:55:46 5 999 0 0 O 0 96.6 795
02:58:45 5 999 0 0 O 0 96.6 790
03:01:47 5 999 0 0 O 0 96.6 792
03:04:44 5 999 0 0 O 0 96.6 794
03:07:47 5 999 0 0 O 0 96.6 797
03:10:47 5 999 0 0 O 0 96.6 803
03:13:46 5 999 0 0 O 0 96.6 797
03:16:45 5 999 0 0 O 0 96.6 799
03:19:45 5 999 0 0 O 0 96.6 796
03:22:47 5 1000 0 0 O 0 96.6 804
03:25:45 5 999 0 0 O 0 96.6 806
03:28:48 4 999 0 0 SO 0 96.6 808
03:31:48 4 999 0 0 SO 0 96.6 814
03:34:45 4 999 0 0 SO 0 96.6 817
03:37:48 4 999 0 0 SO 0 96.6 818
03:40:47 5 1000 0 0 SO 0 96.6 809
03:43:48 5 999 0 0 O 0 96.6 808
03:46:45 4 999 0 0 O 0 96.6 814
03:49:47 4 999 0 0 O 0 96.6 812
03:52:49 4 999 0 0 O 0 96.6 807
03:55:47 4 999 0 0 O 0 96.6 808
03:58:45 4 999 0 0 O 0 96.6 805
04:01:45 4 999 0 0 O 0 96.6 805
04:04:47 4 999 0 0 O 0 96.6 802
04:07:45 4 999 0 0 O 0 96.6 794
04:10:47 4 999 0 0 O 0 96.6 796
04:13:47 4 999 0 0 O 0 96.6 806
04:16:46 4 999 0 0 O 0 96.6 812
04:19:46 4 999 0 0 O 0 96.6 819
04:22:48 4 999 0 0 O 0 96.6 807
04:25:46 4 999 0 0 O 0 96.6 806
04:28:48 4 999 0 0 SO 0 96.6 808
04:31:49 4 999 3 0 SO 0 96.6 806
04:34:46 4 999 5 0 SO 0 96.6 811
04:37:47 4 1000 7 0 SO 0 96.6 812
04:40:47 4 998 10 0 O 0 96.6 821
04:43:46 4 999 13 0 O 0 96.6 814
04:46:46 4 1000 18 0 O 0 96.6 807
04:49:48 4 999 24 0 O 0 96.6 812
04:52:47 4 999 31 0 O 0 96.6 809
04:55:45 4 999 39 0 O 0 96.6 815
04:58:46 4 999 47 0 O 0 96.6 815
05:01:46 4 998 54 0 O 0 96.6 820
05:04:47 4 999 62 0 O 0 96.6 812
05:07:46 4 999 70 0 O 0 96.6 809
05:10:46 4 999 78 0 O 0 96.6 814
05:13:50 4 999 85 0 O 0 96.6 822
05:16:46 4 998 91 0 O 0 96.6 827
05:19:47 4 999 98 0 O 0 96.6 824
05:22:48 4 999 104 0 O 0 96.6 822
05:25:47 4 1000 109 0 O 0 96.6 822
05:28:46 4 999 115 0 O 0 96.6 816
05:31:47 4 999 120 0 O 0 96.6 811
05:34:47 4 999 126 0 O 0 96.6 808
05:37:46 4 999 131 0 O 0 96.6 811
05:40:47 4 999 136 0 O 0 96.6 820
05:43:50 4 999 140 0 O 0 96.6 820
05:46:46 4 999 145 0 O 0 96.6 817
05:49:49 4 999 149 0 O 0 96.6 816
05:52:46 4 999 153 0 O 0 96.6 821
05:55:47 4 998 156 0 O 0 96.6 821
05:58:48 4 999 158 0 O 0 96.6 824
06:01:48 4 999 160 0 O 0 96.6 821
06:04:47 4 999 162 0 O 0 96.6 824
06:07:48 4 999 164 0 O 0 96.6 823
06:10:48 4 999 166 0 O 0 96.6 822
06:13:47 4 999 169 0 O 0 96.6 815
06:16:48 4 999 172 0 O 0 96.6 815
06:19:49 4 999 176 0 O 0 96.6 824
06:22:48 5 999 180 0 O 0 96.6 826
06:25:47 5 999 184 0 O 0 96.6 826
06:28:47 5 999 185 0 O 0 96.6 823
06:31:47 5 999 184 0 O 0 96.6 812
06:34:50 5 999 185 0 O 0 96.6 826
06:37:47 6 999 185 0 O 0 96.6 818
06:40:45 6 999 184 0 O 0 96.6 814
06:43:48 6 999 185 0 O 0 96.6 815
06:46:48 6 999 186 0 O 0 96.6 824
06:49:47 6 999 182 0 O 0 96.6 820
06:52:50 6 998 185 0 O 0 96.6 818
06:55:48 6 999 185 0 O 0 96.6 820
06:58:49 7 999 184 0 O 0 96.6 822
07:01:49 7 999 186 0 O 0 96.6 816
07:04:49 7 1000 187 0 O 0 96.6 797
07:07:48 7 999 191 0 SO 0 96.6 779
07:10:48 7 999 192 0 SO 0 96.6 753
07:13:49 7 1001 191 0 SO 0 96.6 738
07:16:47 8 999 192 0 SO 0 96.6 751
07:19:47 8 999 193 0 SO 0 96.6 756
07:22:51 10 999 194 0 SO 0 96.6 758
07:25:48 12 999 194 0 SO 0 96.6 742
07:28:48 13 998 194 0 SO 0 93 733
07:31:47 14 999 195 0 O 0 86.2 727
07:34:48 15 999 195 0 O 0 85.5 730
07:37:48 16 999 195 0 O 0 84.6 730
07:40:52 17 999 195 0 SO 0 82 730
07:43:48 17 999 196 0 NW 0 79.4 729
07:46:50 18 999 197 0 SO 0 77.9 728
07:49:46 19 999 198 0 S 0 76.5 723
07:52:31 16 999 199 0 O 0 69.5 725
07:55:48 18 999 200 0 S 0 73 713
07:58:50 18 999 202 0 SO 0 72.1 713
08:01:48 18 999 205 0 N 0 70.4 701
08:04:47 16 999 205 0 O 0 69.2 709
08:07:50 15 999 204 3 NO 0 73.8 692
08:10:48 14 999 201 6 O 0 74.7 683
08:13:47 13 999 200 0 N 0 76 683
08:16:48 13 999 198 3 SO 0 77.7 686
08:19:49 13 999 195 0 N 0 79.6 689
08:22:49 13 998 192 0 N 0 80 682
08:25:47 13 999 190 1 SO 0 80.1 674
08:28:48 13 999 189 5 S 0 79.1 668
08:31:51 13 999 189 0 SO 0 80.3 666
08:34:47 13 999 190 2 O 0 81.1 665
08:37:50 12 999 191 2 NO 0 81.5 662
08:40:51 12 999 192 8 SO 0 82 656
08:43:47 12 999 193 2 S 0 81.9 656
08:46:48 12 999 195 5 S 0 80.8 656
08:49:49 12 999 196 2 N 0 79.1 650
08:52:49 12 999 198 0 S 0 79.2 650
08:55:49 12 999 197 8 SO 0 78.9 641
08:58:50 12 999 194 0 SO 0 78.5 647
09:01:47 13 999 193 4 S 0 78.9 638
09:04:55 13 999 194 2 N 0 78.3 638
09:07:51 13 998 193 1 SO 0 76.3 635
09:10:49 13 999 196 1 O 0 75.4 638
09:13:47 13 999 197 0 S 0 74.3 630
09:16:48 13 999 198 1 O 0 74.4 627
09:19:49 13 999 199 2 NO 0 74.1 621
09:22:47 13 999 201 4 S 0 74 615
09:25:50 13 999 201 2 SO 0 72.8 615
09:28:47 13 998 204 5 NO 0 72.6 615
09:31:48 14 998 204 1 NO 0 71.2 616
09:34:48 14 999 200 3 N 0 69.3 618
09:37:47 14 998 197 5 N 0 65.4 615
09:40:48 14 999 201 0 S 0 65.7 609
09:43:48 14 998 201 7 S 0 66.8 607
09:46:46 14 999 202 4 N 0 66.2 597
09:49:48 14 999 202 6 O 0 67.4 592
09:52:46 14 998 203 4 S 0 67.6 589
09:55:49 14 998 202 4 O 0 67.9 589
09:58:49 14 999 201 3 SO 0 68.2 583
10:01:49 14 999 202 8 SO 0 67.5 583
10:04:49 14 999 201 1 S 0 65.8 577
10:07:48 14 999 202 0 SO 0 64.6 580
10:10:48 14 998 203 1 O 0 63.9 560
10:13:46 14 999 203 2 S 0 64.5 561
10:16:47 14 998 204 7 O 0 64.9 553
10:19:46 14 998 205 9 S 0 65.4 561
10:22:51 15 998 206 1 NW 0 62.5 572
10:25:48 15 999 203 4 S 0 63 569
10:28:49 15 999 205 6 SO 0 63.5 559
10:31:49 15 998 203 9 N 0 59.3 556
10:34:51 15 998 204 0 SO 0 59.7 550
10:37:47 15 999 205 6 S 0 60.9 546
10:40:49 15 998 206 2 SW 0 60.7 541
10:43:48 15 998 207 1 S 0 62.2 544
10:46:48 15 999 209 0 S 0 62.8 539
10:49:47 16 998 210 1 O 0 61.6 534
10:52:47 16 998 212 1 O 0 58.9 540
10:55:48 16 998 212 7 S 0 54.8 539
10:58:46 16 998 216 1 NO 0 56 538
11:01:47 16 998 213 5 S 0 57.4 536
11:04:48 16 998 212 1 O 0 58.4 550
11:07:50 16 998 210 3 SO 0 59.4 548
11:10:46 16 998 210 1 O 0 57.6 542
11:13:48 15 998 212 6 S 0 56.8 546
11:16:48 16 998 215 1 SO 0 57.8 543
11:19:48 16 998 217 10 SO 0 58 539
11:22:46 16 998 217 3 N 0 56.4 537
11:25:48 16 998 216 2 SO 0 54.4 533
11:28:48 17 999 216 5 O 0 54.2 530
11:31:47 17 998 214 1 W 0 54.9 527
11:34:48 17 998 209 14 S 0 53.6 524
11:37:48 17 998 210 7 SO 0 52.3 522
11:40:48 17 998 211 3 O 0 52.8 518
11:43:46 17 998 211 1 S 0 54.6 516
11:46:47 17 998 218 6 S 0 55 516
11:49:47 17 998 216 6 S 0 56.8 515
11:52:48 18 998 220 3 NO 0 52.8 516
11:55:48 19 998 220 5 SW 0 52.3 507
11:58:49 20 998 213 9 S 0 46.5 507
12:01:50 20 998 210 0 S 0 45.8 501
12:04:49 19 998 210 4 S 0 43.5 497
12:07:48 19 998 215 9 SO 0 43.1 503
12:10:49 19 998 217 1 NW 0 46.4 510
12:13:51 20 998 218 6 SW 0 45.9 509
12:16:48 20 998 215 3 S 0 39.1 496
12:19:33 18 998 215 6 SO 0 40 495
12:22:49 21 998 217 9 SO 0 42.8 500
12:25:47 21 998 218 1 S 0 43.8 501
12:28:48 21 998 219 3 W 0 44.2 498
12:31:49 22 998 219 3 SO 0 43.4 493
12:34:47 23 998 218 4 O 0 40.1 497
12:37:49 22 998 218 7 SO 0 39.6 492
12:40:50 22 998 222 15 S 0 38.5 490
12:43:49 23 998 225 8 S 0 38.1 483
12:46:47 23 998 223 2 S 0 37 480
12:49:50 23 998 224 2 SO 0 36.9 481
12:52:50 23 998 224 6 SO 0 38.6 480
12:55:49 23 998 223 1 SW 0 39.8 478
12:58:47 22 998 225 3 NO 0 40.3 477
13:01:51 21 998 229 0 NW 0 42.9 483
13:04:47 22 998 229 0 S 0 43.5 489
13:07:32 21 998 229 5 S 0 40 489
13:10:49 24 998 226 3 SW 0 40.2 481
13:13:49 24 998 224 7 SW 0 38.7 474
13:16:49 23 998 226 5 NW 0 37.3 469
13:19:49 22 998 226 3 NW 0 36.8 472
13:22:48 22 998 228 8 S 0 41 471
13:25:47 23 998 229 2 S 0 35.4 468
13:28:48 24 998 228 4 SO 0 35.2 472
13:31:51 24 998 227 1 S 0 32.7 466
13:34:49 24 998 227 5 SO 0 32.4 472
13:37:47 24 998 227 1 SW 0 32.4 472
13:40:48 24 998 230 0 SW 0 33.9 471
13:43:47 25 997 229 0 S 0 35.3 468
13:46:47 25 998 231 4 SO 0 35.5 469
13:49:50 25 998 232 6 SW 0 34.4 469
13:52:48 25 998 229 0 S 0 33.9 471
13:55:50 24 998 226 4 SW 0 35.4 468
13:58:48 23 998 234 3 N 0 35.3 472
14:01:30 23 998 233 0 N 0 40 468
14:04:50 22 998 222 3 NW 0 39.6 466
14:07:49 21 998 223 5 NO 0 39.3 462
14:10:47 19 998 224 0 NW 0 43 468
14:13:48 19 998 225 3 NW 0 44.5 469
14:16:48 19 998 229 4 NW 0 45 466
14:19:47 19 998 224 1 W 0 43.6 460
14:22:48 19 998 226 2 SO 0 44.5 459
14:25:47 19 998 227 5 S 0 44 463
14:28:47 19 997 230 0 SO 0 43.5 460
14:31:48 20 998 242 1 S 0 45.6 457
14:34:51 21 998 242 1 NW 0 43.7 457
14:37:48 23 998 242 1 S 0 39.5 457
14:40:48 23 997 229 3 NW 0 38.4 460
14:43:47 23 997 242 5 N 0 38.4 457
14:46:51 23 997 243 1 SO 0 40.7 459
14:49:47 23 997 229 0 S 0 40.6 456
14:52:48 23 997 230 2 SO 0 38.6 454
14:55:48 23 997 243 0 S 0 40.9 458
14:58:48 23 997 244 0 SW 0 39.2 457
15:01:49 24 997 244 11 SO 0 38.6 454
15:04:49 25 997 244 4 S 0 37.1 446
15:07:49 24 997 228 4 S 0 35.3 443
15:10:48 23 996 245 1 NO 0 34.9 444
15:13:31 23 997 245 1 NO 0 40 442
15:16:47 23 997 243 7 S 0 37.9 439
15:19:48 24 997 245 6 S 0 37.2 446
15:22:50 25 997 245 5 SO 0 35.6 446
15:25:49 25 997 245 0 N 0 32.5 445
15:28:48 24 997 245 4 S 0 34.6 442
15:31:47 25 997 243 0 S 0 35 446
15:34:49 25 996 231 1 SO 0 33.5 442
15:37:47 23 996 246 1 NW 0 33.9 443
15:40:49 24 996 246 3 SO 0 36.3 439
15:43:47 25 996 247 4 SW 0 37.5 437
15:46:48 25 996 238 2 SW 0 35.9 436
15:49:49 24 997 235 2 SO 0 33.8 436
15:52:47 24 996 234 0 SO 0 33.1 436
15:55:47 23 997 247 0 SO 0 35.6 434
15:58:49 23 997 240 7 SO 0 36.1 434
16:01:49 23 997 234 1 NO 0 35.7 436
16:04:51 22 996 236 10 NW 0 35.1 434
16:07:49 21 996 235 1 NO 0 37.1 437
16:10:46 20 996 231 5 S 0 38.5 439
16:13:49 21 997 233 1 S 0 40.6 434
16:16:47 21 996 227 1 O 0 40.4 428
16:19:46 21 996 223 3 N 0 40.2 446
16:22:48 20 997 223 0 O 0 39.6 451
16:25:48 19 996 226 3 NO 0 40.1 457
16:28:46 19 996 231 0 W 0 40 457
16:31:49 19 995 233 0 NO 0 41.9 451
16:34:48 19 996 235 0 N 0 42.2 448
16:37:46 20 996 230 1 NO 0 42.5 445
16:40:46 19 996 228 1 N 0 41.6 451
16:43:48 19 996 230 0 SO 0 40.8 448
16:46:45 20 996 234 0 O 0 43.7 445
16:49:48 20 997 232 0 O 0 43.2 445
16:52:47 21 996 237 1 NO 0 41.7 447
16:55:51 21 997 233 0 NW 0 41.2 445
16:58:47 21 996 246 4 NW 0 38.7 442
17:01:47 22 997 245 0 O 0 37.6 445
17:04:49 23 996 247 3 N 0 36.2 439
17:07:48 24 996 247 6 N 0 35.8 440
17:10:46 25 996 247 1 O 0 34.8 447
17:13:47 26 996 245 0 NO 0 33.3 448
17:16:48 26 996 243 1 N 0 31.9 449
17:19:48 24 996 247 2 SO 0 32.2 445
17:22:48 25 997 247 0 O 0 33.6 439
17:25:48 26 996 247 5 SO 0 34.5 436
17:28:50 27 996 247 1 NO 0 29.6 427
17:31:49 27 996 247 0 SO 0 29.7 430
17:34:48 28 995 247 2 SO 0 30.1 434
17:37:49 26 996 247 5 N 0 27.5 442
17:40:47 25 995 247 4 S 0 29.7 442
17:43:47 26 995 247 3 SO 0 30.7 445
17:46:47 26 995 247 8 S 0 32 445
17:49:48 26 995 247 0 O 0 31.2 445
17:52:46 25 996 214 4 W 0 30.7 442
17:55:48 25 996 215 0 O 0 30.7 436
17:58:47 26 995 214 1 SO 0 31.7 434
18:01:48 26 995 215 2 SO 0 30.7 430
18:04:50 26 996 245 2 SO 0 29.8 419
18:07:47 25 996 232 4 N 0 30.7 419
18:10:48 23 995 219 4 SO 0 30.7 415
18:13:50 22 995 205 0 NW 0 35 428
18:16:46 23 995 194 0 N 0 35.7 424
18:19:48 20 996 187 2 O 0 37.5 430
18:22:48 19 996 178 2 NO 0 39.7 430
18:25:46 19 995 163 0 S 0 41 430
18:28:46 19 995 145 1 N 0 41.1 433
18:31:46 19 996 121 2 S 0 40.7 433
18:34:47 18 995 101 4 S 0 41 433
18:37:46 18 997 65 4 NO 0 42.8 439
18:40:45 18 996 91 17 O 0 50.9 439
18:43:31 17 996 82 3 W 0 40 451
18:46:49 16 996 79 16 NW 0.515 57.9 459
18:49:48 14 996 90 5 W 1.545 64.9 460
18:52:47 13 998 94 4 O 1.2875 71.9 448
18:55:46 12 997 95 1 O 0.2575 78.9 431
18:58:46 12 997 103 2 S 0.2575 88.4 427
19:01:49 11 997 107 2 SW 0.2575 91.4 436
19:04:46 11 997 102 2 NW 0 92.2 445
19:07:48 11 997 108 5 SW 0 92.8 445
19:10:47 11 997 124 7 W 0 94.1 451
19:13:47 11 997 133 5 SO 0.2575 94.6 452
19:16:48 11 997 135 3 W 0.2575 95.5 454
19:19:47 11 998 143 0 NO 0.2575 96 459
19:22:45 11 996 150 1 O 0 96.6 471
19:25:48 11 997 152 3 S 0 96.6 480
19:28:50 11 997 146 1 NW 0 96.6 477
19:31:50 11 997 132 0 S 0 96.6 478
19:34:47 11 997 114 2 S 0 96.6 466
19:37:47 11 996 84 1 S 0 96.6 466
19:40:46 11 997 60 0 SO 0 96.6 474
19:43:46 11 997 53 2 S 0 96.6 481
19:46:47 11 997 55 0 SO 0 96.6 488
19:49:48 11 998 56 0 SO 0 96.6 483
19:52:49 11 998 55 0 SO 0 96.6 483
19:55:46 11 997 54 0 SW 0 96.6 483
19:58:49 11 998 54 0 SO 0 96.6 483
20:01:49 11 998 53 1 SO 0 96.6 478
20:04:47 11 997 57 0 SO 0 96.6 487
20:07:49 11 998 66 0 SO 0 96.6 486
20:10:49 11 997 81 1 S 0 96.6 492
20:13:48 10 998 100 0 SO 0 96.6 495
20:16:50 10 998 123 1 SW 0 96.6 495
20:19:50 10 997 144 4 NW 0 96.6 498
20:22:48 10 998 162 13 NW 0 96.6 501
20:25:50 10 996 172 13 NW 0 96.6 501
20:28:47 10 996 176 7 N 0 96.6 501
20:31:47 10 997 178 4 NW 0 96.6 495
20:34:48 10 997 182 8 NO 0 96.6 492
20:37:51 10 997 180 8 SW 0 96.6 495
20:40:49 10 996 174 9 SW 0 96.6 497
20:43:49 10 997 170 7 NO 0 96.6 493
20:46:48 10 997 162 12 N 0 96.6 486
20:49:47 10 997 155 6 N 0 96.6 489
20:52:47 10 997 149 3 N 0 96.6 495
20:55:48 10 996 142 9 N 0 96.6 504
20:58:48 10 997 137 8 NO 0 96.6 506
21:01:48 10 996 130 3 NW 0 96.6 512
21:04:46 10 997 122 2 W 0 96.6 509
21:07:45 10 996 111 7 N 0 96.6 515
21:10:48 10 996 102 2 W 0 96.6 509
21:13:46 10 997 90 1 0 96.6 513
21:16:48 10 997 79 3 NW 0 96.6 512
21:19:46 10 997 71 0 S 0 96.6 515
21:22:46 10 996 63 0 0 96.6 515
21:25:46 10 998 55 0 SO 0 96.6 521
21:28:46 10 997 47 2 SO 0 96.6 513
21:31:46 10 996 40 1 S 0 96.6 514
21:34:47 10 997 35 1 0 96.6 517
21:37:47 10 997 28 1 NO 0 96.6 517
21:40:49 9 996 23 0 SO 0 96.6 518
21:43:48 9 997 19 0 SO 0 96.6 523
21:46:47 9 997 14 0 SO 0 96.6 534
21:49:46 9 997 11 1 SO 0 96.6 532
21:52:45 9 997 8 3 S 0 96.6 531
21:55:49 9 996 6 0 SO 0 96.6 534
21:58:46 9 998 5 2 NO 0 96.6 539
22:01:47 9 998 4 2 S 0 96.6 545
22:04:46 9 997 3 2 SO 0 96.6 547
22:07:48 9 997 3 0 SO 0 96.6 554
22:10:48 9 997 3 3 SO 0 96.6 548
22:13:46 9 997 0 2 S 0 96.6 550
22:16:47 9 998 0 0 SO 0 96.6 553
22:19:46 9 998 0 0 SO 0 96.6 559
22:22:47 9 998 0 0 O 0 96.6 560
22:25:45 9 997 0 0 O 0 96.6 560
22:28:45 9 997 0 0 O 0 96.6 559
22:31:47 9 997 0 0 O 0 96.6 563
22:34:48 9 998 0 0 O 0 96.6 571
22:37:48 9 997 0 0 O 0 96.6 574
22:40:47 9 998 0 0 O 0 96.6 572
22:43:47 9 998 0 0 O 0 96.6 568
22:46:47 9 997 0 0 O 0 96.6 568
22:49:50 9 997 0 0 NW 0 96.6 572
22:52:48 9 998 0 0 NW 0 96.6 587
22:55:50 9 997 0 0 NW 0 96.6 578
22:58:48 9 997 0 0 NW 0 96.6 574
23:01:48 9 998 0 0 NW 0 96.6 574
23:04:47 8 998 0 0 NW 0 96.6 598
23:07:48 8 998 0 0 NW 0 96.6 609
23:10:47 8 997 0 0 NW 0 96.6 612
23:13:46 8 998 0 0 NW 0 96.6 627
23:16:48 8 997 0 0 NW 0 96.6 650
23:19:46 8 997 0 0 NW 0 96.6 664
23:22:48 8 998 0 0 NW 0 96.6 670
23:25:46 8 997 0 0 NW 0 96.6 674
23:28:47 8 998 0 0 NW 0 96.6 677
23:31:50 8 998 0 0 NW 0 96.6 675
23:34:46 8 998 0 0 NW 0 96.6 685
23:37:50 8 998 0 0 NW 0 96.6 685
23:40:47 8 998 0 0 NW 0 96.6 682
23:43:50 8 997 0 0 NW 0 96.6 685
23:46:50 8 998 0 0 NW 0 96.6 688
23:49:46 8 997 0 0 O 0 96.6 696
23:52:46 8 998 0 0 O 0 96.6 700
23:55:47 8 998 0 0 O 0 96.6 701
23:58:49 8 998 0 0 O 0 96.6 696

Letzte Änderung : 04-Jan-2022
Copyright Jens Köhler, Wolfsburg, Obere Dorfstraße 10d